Location: Unspecified
(45.4615°N, 74.0512°W)
Time: 04:16:11
(UTC-04:00)

Cosmos 1674 - Visible Passes

Search period start: 19 April 2019 00:00
Search period end: 29 April 2019 00:00
Orbit: 497 x 519 km, 82.5° (Epoch: 18 April)

Date Brightness Start Highest point End Pass type
(mag) Time Alt. Az. Time Alt. Az. Time Alt. Az.
22 Apr 5.5 05:15:16 10° SE 05:18:12 22° E 05:21:10 10° NE visible
23 Apr 5.6 04:58:17 10° SE 05:00:47 17° E 05:03:20 10° NE visible
24 Apr 5.8 04:41:28 10° ESE 04:43:24 14° E 04:45:19 10° NE visible
25 Apr 6.1 04:25:14 10° E 04:26:01 11° E 04:26:47 10° ENE visible
28 Apr 3.3 05:04:45 10° S 05:08:30 60° E 05:12:17 10° NNE visible
